�������l�o���
Date,Time,MP-1(��Sv/h),MP-2(��Sv/h),MP-3(��Sv/h),MP-4(��Sv/h),MP-5(��Sv/h),MP-6(��Sv/h),MP-7(��Sv/h),MP-8(��Sv/h),����,����(m/s),���J
2015/02/20,00:00,1.863,3.333,3.622,3.285,3.387,1.078,1.782,2.050,�k,5.6,��
2015/02/20,00:10,1.865,3.333,3.627,3.285,3.390,1.078,1.780,2.050,�k,6.0,�L
2015/02/20,00:20,1.865,3.338,3.622,3.285,3.393,1.082,1.782,2.050,�k�k��,5.1,��
2015/02/20,00:30,1.868,3.338,3.623,3.287,3.392,1.082,1.782,2.050,�k�k��,5.7,�L
2015/02/20,00:40,1.865,3.337,3.625,3.285,3.388,1.082,1.782,2.050,�k�k��,4.7,�L
2015/02/20,00:50,1.867,3.338,3.625,3.285,3.393,1.080,1.783,2.053,�k�k��,5.3,��
2015/02/20,01:00,1.863,3.338,3.630,3.287,3.393,1.080,1.782,2.057,�k�k��,5.0,��
2015/02/20,01:10,1.863,3.338,3.625,3.288,3.393,1.080,1.780,2.052,�k�k��,5.3,��
2015/02/20,01:20,1.863,3.343,3.630,3.290,3.392,1.080,1.782,2.048,�k�k��,4.9,��
2015/02/20,01:30,1.865,3.345,3.630,3.292,3.400,1.082,1.782,2.052,�k�k��,5.6,�L
2015/02/20,01:40,1.867,3.345,3.628,3.288,3.407,1.082,1.785,2.052,�k�k��,5.1,��
2015/02/20,01:50,1.865,3.345,3.630,3.288,3.403,1.078,1.782,2.050,�k�k��,5.7,��
2015/02/20,02:00,1.867,3.343,3.633,3.288,3.405,1.080,1.783,2.052,�k�k��,5.6,��
2015/02/20,02:10,1.865,3.345,3.637,3.290,3.405,1.082,1.782,2.052,�k�k��,5.6,�L
2015/02/20,02:20,1.867,3.348,3.637,3.288,3.403,1.080,1.783,2.053,�k�k��,5.8,��
2015/02/20,02:30,1.867,3.347,3.633,3.292,3.408,1.082,1.783,2.052,�k�k��,5.8,�L
2015/02/20,02:40,1.863,3.343,3.633,3.290,3.408,1.083,1.782,2.050,�k�k��,6.0,�L
2015/02/20,02:50,1.867,3.343,3.635,3.295,3.410,1.082,1.780,2.052,�k�k��,5.5,�L
2015/02/20,03:00,1.865,3.347,3.635,3.292,3.412,1.085,1.783,2.052,�k�k��,5.7,�L
2015/02/20,03:10,1.865,3.353,3.643,3.290,3.410,1.080,1.783,2.053,�k�k��,5.8,��
2015/02/20,03:20,1.863,3.352,3.642,3.292,3.412,1.083,1.785,2.055,�k�k��,6.1,��
2015/02/20,03:30,1.863,3.350,3.643,3.295,3.418,1.080,1.785,2.055,�k�k��,5.6,��
2015/02/20,03:40,1.863,3.350,3.643,3.295,3.420,1.083,1.785,2.053,�k,5.5,��
2015/02/20,03:50,1.865,3.348,3.640,3.293,3.417,1.083,1.785,2.052,�k�k��,6.0,��
2015/02/20,04:00,1.867,3.353,3.637,3.297,3.417,1.082,1.785,2.053,�k�k��,5.6,��
2015/02/20,04:10,1.868,3.352,3.642,3.297,3.418,1.083,1.785,2.055,�k�k��,5.6,��
2015/02/20,04:20,1.865,3.357,3.642,3.297,3.422,1.080,1.787,2.052,�k�k��,5.8,��
2015/02/20,04:30,1.865,3.350,3.640,3.295,3.417,1.082,1.788,2.052,�k�k��,5.3,��
2015/02/20,04:40,1.867,3.355,3.643,3.295,3.415,1.085,1.787,2.053,�k�k��,6.3,��
2015/02/20,04:50,1.868,3.355,3.640,3.297,3.420,1.082,1.783,2.052,�k�k��,6.0,��
2015/02/20,05:00,1.865,3.353,3.642,3.295,3.427,1.082,1.785,2.055,�k�k��,7.4,��
2015/02/20,05:10,1.867,3.353,3.643,3.297,3.420,1.082,1.787,2.053,�k�k��,7.7,��
2015/02/20,05:20,1.865,3.352,3.643,3.300,3.420,1.080,1.787,2.055,�k�k��,8.2,��
2015/02/20,05:30,1.865,3.355,3.645,3.300,3.420,1.080,1.785,2.057,�k�k��,7.7,��
2015/02/20,05:40,1.865,3.353,3.645,3.297,3.423,1.080,1.787,2.052,�k�k��,8.3,��
2015/02/20,05:50,1.867,3.357,3.640,3.302,3.425,1.082,1.788,2.053,�k�k��,7.2,��
2015/02/20,06:00,1.868,3.357,3.647,3.303,3.425,1.078,1.785,2.055,�k�k��,8.3,��
2015/02/20,06:10,1.868,3.357,3.648,3.302,3.428,1.078,1.787,2.053,�k�k��,7.8,��
2015/02/20,06:20,1.868,3.362,3.647,3.298,3.423,1.077,1.785,2.053,�k�k��,8.0,��
2015/02/20,06:30,1.870,3.365,3.645,3.298,3.423,1.075,1.787,2.055,�k�k��,7.7,��
2015/02/20,06:40,1.868,3.360,3.648,3.297,3.427,1.070,1.783,2.055,�k�k��,7.2,��
2015/02/20,06:50,1.867,3.360,3.647,3.295,3.420,1.070,1.785,2.057,�k�k��,7.4,��
2015/02/20,07:00,1.865,3.363,3.645,3.300,3.422,1.065,1.783,2.057,�k�k��,6.6,��
2015/02/20,07:10,1.867,3.363,3.647,3.298,3.423,1.062,1.788,2.057,�k�k��,6.7,��
2015/02/20,07:20,1.868,3.365,3.647,3.298,3.427,1.060,1.788,2.053,�k�k��,7.1,��
2015/02/20,07:30,1.867,3.360,3.648,3.300,3.427,1.062,1.787,2.055,�k�k��,6.8,��
2015/02/20,07:40,1.868,3.363,3.650,3.303,3.433,1.062,1.787,2.057,�k�k��,7.4,��
2015/02/20,07:50,1.870,3.365,3.650,3.302,3.430,1.070,1.788,2.055,�k�k��,7.2,��
2015/02/20,08:00,1.867,3.365,3.652,3.305,3.432,1.070,1.790,2.055,�k�k��,6.0,��
2015/02/20,08:10,1.868,3.367,3.652,3.307,3.433,1.072,1.792,2.053,�k�k��,6.5,��
2015/02/20,08:20,1.872,3.363,3.653,3.302,3.435,1.072,1.790,2.057,�k�k��,5.4,��
2015/02/20,08:30,1.872,3.368,3.655,3.307,3.437,1.072,1.788,2.055,�k�k��,4.6,��
2015/02/20,08:40,1.872,3.370,3.660,3.310,3.440,1.070,1.788,2.053,�k�k��,4.7,��
2015/02/20,08:50,1.870,3.373,3.660,3.308,3.442,1.072,1.790,2.058,�k,4.9,��
2015/02/20,09:00,1.875,3.375,3.665,3.308,3.438,1.065,1.788,2.057,�k�k��,4.5,��
2015/02/20,09:10,1.872,3.378,3.665,3.312,-,1.062,1.790,2.055,�k�k��,6.7,��
2015/02/20,09:20,1.872,3.382,3.668,3.312,-,1.060,1.790,2.058,�k�k��,6.0,��
2015/02/20,09:30,1.870,3.382,3.670,3.315,-,1.062,1.792,2.057,�k,6.0,��
2015/02/20,09:40,1.872,3.382,3.678,3.312,-,1.060,1.790,2.052,�k,5.3,��
2015/02/20,09:50,1.875,3.373,3.680,3.313,-,1.062,1.792,2.053,�k�k��,6.0,��
2015/02/20,10:00,1.877,3.388,3.682,3.317,-,1.060,1.792,2.058,�k�k��,6.3,��
2015/02/20,10:10,1.875,3.392,3.680,3.318,-,1.060,1.788,2.057,�k�k��,6.3,��
2015/02/20,10:20,1.877,3.392,3.677,3.318,-,1.062,1.790,2.050,�k�k��,6.3,��
2015/02/20,10:30,1.872,3.392,3.680,3.322,-,1.063,1.790,2.052,�k�k��,6.6,��
2015/02/20,10:40,1.875,3.392,3.685,3.322,-,1.063,1.793,2.055,�k�k��,7.7,��
2015/02/20,10:50,1.875,3.390,3.683,3.325,-,1.065,1.792,2.057,�k�k��,7.8,��
2015/02/20,11:00,1.877,3.385,3.685,3.325,-,1.063,1.793,2.058,�k�k��,6.8,��
2015/02/20,11:10,-,-,-,-,-,-,-,-,-,-,-
2015/02/20,11:20,-,-,-,-,-,-,-,-,-,-,-
2015/02/20,11:30,-,-,-,-,-,-,-,-,-,-,-
2015/02/20,11:40,-,-,-,-,-,-,-,-,-,-,-
2015/02/20,11:50,-,-,-,-,-,-,-,-,-,-,-
2015/02/20,12:00,-,-,-,-,-,-,-,-,-,-,-
2015/02/20,12:10,-,-,-,-,-,-,-,-,-,-,-
2015/02/20,12:20,-,-,-,-,-,-,-,-,-,-,-
2015/02/20,12:30,-,-,-,-,-,-,-,-,-,-,-
2015/02/20,12:40,1.878,3.412,3.702,3.335,-,1.065,1.797,2.057,-,-,-
2015/02/20,12:50,1.883,3.417,3.702,3.333,-,1.067,1.800,2.053,�k��,8.2,��
2015/02/20,13:00,1.883,3.418,3.707,3.332,-,1.072,1.798,2.047,�k�k��,7.8,��
2015/02/20,13:10,1.880,3.417,3.703,3.332,-,1.067,1.797,2.050,�k��,6.9,��
2015/02/20,13:20,1.882,3.420,3.708,3.335,-,1.068,1.798,2.053,�k�k��,6.9,��
2015/02/20,13:30,1.883,3.423,3.707,3.335,-,1.070,1.798,2.058,�k��,6.5,��
2015/02/20,13:40,1.880,3.428,3.705,3.335,-,1.070,1.797,2.055,�k�k��,6.8,��
2015/02/20,13:50,1.880,3.427,3.712,3.337,-,1.072,1.798,2.055,�k��,6.5,��
2015/02/20,14:00,1.882,3.423,3.712,3.338,-,1.070,1.800,2.055,�k�k��,7.1,��
2015/02/20,14:10,1.878,3.422,3.707,3.340,-,1.073,1.798,2.055,�k��,6.8,��
2015/02/20,14:20,1.885,3.425,3.710,3.340,-,1.072,1.800,2.055,�k�k��,6.8,��
2015/02/20,14:30,1.883,3.432,3.710,3.338,-,1.073,1.800,2.053,�k�k��,6.0,��
2015/02/20,14:40,1.883,3.432,3.712,3.338,-,1.077,1.800,2.057,�k�k��,7.2,�L
2015/02/20,14:50,1.885,3.433,3.712,3.338,-,1.072,1.800,2.055,�k�k��,6.3,��
2015/02/20,15:00,1.882,3.430,3.715,3.338,-,1.073,1.800,2.057,�k�k��,6.5,��
2015/02/20,15:10,1.882,3.427,3.713,3.338,-,1.075,1.798,2.055,�k�k��,5.7,��
2015/02/20,15:20,1.882,3.427,3.712,3.338,-,1.077,1.797,2.055,�k,4.9,�L
2015/02/20,15:30,1.883,3.428,3.713,3.337,-,1.077,1.798,2.057,�k,4.3,��
2015/02/20,15:40,1.883,3.432,3.712,3.340,-,1.078,1.802,2.057,�k,3.8,�L
2015/02/20,15:50,1.882,3.430,3.712,3.343,-,1.083,1.798,2.055,�k�k��,3.8,�L
2015/02/20,16:00,1.883,3.425,3.707,3.338,-,1.085,1.797,2.057,�k,3.0,�L
2015/02/20,16:10,1.880,3.420,3.700,3.330,-,1.080,1.798,2.055,�k,3.6,�L
2015/02/20,16:20,1.878,3.413,3.692,3.327,-,1.085,1.793,2.053,�k�k��,4.5,�L
2015/02/20,16:30,1.877,3.415,3.693,3.325,-,1.083,1.792,2.050,�k,3.1,��
2015/02/20,16:40,1.877,3.415,3.693,3.322,-,1.083,1.793,2.052,�k�k��,1.7,��
2015/02/20,16:50,1.877,3.413,3.690,3.328,3.472,1.083,1.795,2.052,�k�k��,2.1,��
2015/02/20,17:00,1.878,3.412,3.690,3.328,3.477,1.082,1.792,2.055,�k�k��,2.0,��
2015/02/20,17:10,1.878,3.412,3.688,3.330,3.480,1.083,1.793,2.053,�k�k��,1.2,�L
2015/02/20,17:20,1.877,3.410,3.688,3.328,3.477,1.082,1.793,2.052,�k,2.1,��
2015/02/20,17:30,1.877,3.408,3.690,3.327,3.473,1.083,1.793,2.050,�k�k��,2.1,�L
2015/02/20,17:40,1.875,3.408,3.687,3.328,3.473,1.082,1.797,2.050,�k�k��,2.7,�L
2015/02/20,17:50,1.875,3.403,3.682,3.327,3.473,1.083,1.795,2.050,�k��,3.0,�L
2015/02/20,18:00,1.872,3.400,3.680,3.325,3.472,1.082,1.795,2.048,�k�k��,2.8,�L
2015/02/20,18:10,1.873,3.402,3.680,3.315,3.472,1.083,1.790,2.048,�k,2.6,�L
2015/02/20,18:20,1.873,3.398,3.682,3.317,3.473,1.085,1.790,2.048,�k�k��,2.4,��
2015/02/20,18:30,1.873,3.398,3.678,3.322,3.472,1.083,1.793,2.050,�k�k��,3.3,��
2015/02/20,18:40,1.872,3.400,3.677,3.320,3.472,1.085,1.792,2.048,�k�k��,2.9,�L
2015/02/20,18:50,1.870,3.390,3.673,3.320,3.470,1.082,1.790,2.050,�k�k��,3.3,�L
2015/02/20,19:00,1.870,3.397,3.677,3.318,3.470,1.080,1.793,2.048,�k,2.4,�L
2015/02/20,19:10,1.872,3.397,3.677,3.320,3.470,1.083,1.790,2.053,�k�k��,2.3,�L
2015/02/20,19:20,1.873,3.398,3.678,3.318,3.473,1.082,1.790,2.053,�k�k��,2.0,�L
2015/02/20,19:30,1.873,3.400,3.673,3.320,3.473,1.083,1.792,2.050,�k,2.3,��
2015/02/20,19:40,1.875,3.395,3.678,3.322,3.473,1.083,1.793,2.052,�k�k��,4.3,��
2015/02/20,19:50,1.873,3.392,3.678,3.323,3.473,1.085,1.795,2.052,�k�k��,4.7,��
2015/02/20,20:00,1.875,3.395,3.680,3.323,3.473,1.085,1.793,2.052,�k�k��,5.5,��
2015/02/20,20:10,1.873,3.397,3.680,3.318,3.475,1.085,1.793,2.048,�k�k��,4.5,�L
2015/02/20,20:20,1.870,3.398,3.682,3.320,3.475,1.082,1.793,2.052,�k,4.0,��
2015/02/20,20:30,1.870,3.400,3.678,3.318,3.473,1.083,1.792,2.048,�k,3.8,��
2015/02/20,20:40,1.870,3.395,3.678,3.317,3.470,1.085,1.793,2.050,�k�k��,3.3,��
2015/02/20,20:50,1.872,3.397,3.677,3.322,3.473,1.085,1.790,2.050,�k�k��,3.5,��
2015/02/20,21:00,1.872,3.397,3.677,3.322,3.473,1.085,1.790,2.045,�k��,3.5,��
2015/02/20,21:10,1.873,3.397,3.675,3.318,3.473,1.083,1.792,2.047,�k��,3.3,��
2015/02/20,21:20,1.870,3.398,3.680,3.320,3.470,1.083,1.790,2.048,�k��,3.4,��
2015/02/20,21:30,1.873,3.393,3.673,3.318,3.470,1.085,1.792,2.053,�k��,3.4,��
2015/02/20,21:40,1.872,3.397,3.672,3.323,3.475,1.087,1.792,2.050,�k�k��,3.1,��
2015/02/20,21:50,1.872,3.400,3.678,3.322,3.473,1.083,1.792,2.050,�k�k��,3.2,��
2015/02/20,22:00,1.870,3.395,3.677,3.322,3.470,1.080,1.792,2.047,�k�k��,3.0,��
2015/02/20,22:10,1.870,3.397,3.678,3.318,3.472,1.083,1.790,2.048,�k�k��,3.3,��
2015/02/20,22:20,1.870,3.400,3.675,3.317,3.472,1.083,1.790,2.048,�k�k��,3.1,��
2015/02/20,22:30,1.872,3.397,3.673,3.317,3.470,1.085,1.793,2.050,�k�k��,3.8,��
2015/02/20,22:40,1.870,3.397,3.673,3.318,3.470,1.087,1.792,2.048,�k�k��,3.6,��
2015/02/20,22:50,1.870,3.397,3.673,3.313,3.472,1.085,1.790,2.050,�k�k��,3.8,��
2015/02/20,23:00,1.870,3.393,3.673,3.317,3.472,1.085,1.790,2.048,�k�k��,3.5,��
2015/02/20,23:10,1.872,3.397,3.678,3.317,3.472,1.082,1.788,2.048,�k�k��,3.3,��
2015/02/20,23:20,1.870,3.392,3.675,3.315,3.470,1.085,1.788,2.050,�k,3.2,��
2015/02/20,23:30,1.873,3.398,3.677,3.313,3.472,1.085,1.788,2.053,�k�k��,3.5,��
2015/02/20,23:40,1.873,3.395,3.680,3.317,3.473,1.085,1.788,2.050,�k�k��,3.2,��
2015/02/20,23:50,1.872,3.393,3.677,3.313,3.473,1.085,1.792,2.050,�k,3.2,��
